Flag for U.S.A. Weather past 2 weeks in Wailuku, Hawaii, U.S.A.

Now
83 °F

Passing clouds.


Feels Like: 83 °F
Forecast: 62 / 80 °F
Wind: 6 mph from North

Location: Kahului Airport

Current Time: Jan 28, 2015 at 12:31:23 PM

Latest Report: Jan 28, 2015 at 11:54 AM


Visibility: 10 mi

Pressure: 29.97 "Hg

Humidity: 46%

Dew point: 60 °F

Location of WailukuLocation

Historic Weather in Wailuku — Graph

°F

Wailuku temperature yesterday

Maximum temperature yesterday: 81 °F (at 1:54 PM)
Minimum temperature yesterday: 59 °F (at 3:54 AM)
Average temperature yesterday: 71 °F

Past Weeks' High & Low Weather Summary

 TemperatureHumidityPressure
High85 °F (Jan 19, 2:54 PM)100% (Jan 24, 3:54 PM)30.12 "Hg (Jan 24, 3:54 PM)
Low58 °F (Jan 14, 3:54 AM)41% (Jan 17, 2:54 PM)29.89 "Hg (Jan 27, 4:54 PM)
Average72 °F75%30.02 "Hg
* Reported Jan 13 10:54 AM — Jan 28 10:54 AM, Wailuku, Weather by CustomWeather, © 2014

Note: Actual official high and low records may vary slightly from our data, if they occured in-between our weather recording intervals... More about our weather records

Advertising

Wailuku weather history for previous 24 hours

 ConditionsComfort  
Time TempWeatherWind HumidityBarometerVisibility
10:54 AM
Jan 28
79 °FPassing clouds.6 mph60%29.99 "Hg10 mi
9:54 AM78 °FPassing clouds.No wind60%30.01 "Hg10 mi
8:54 AM72 °FPassing clouds.No wind71%30.00 "Hg10 mi
7:54 AM63 °FPassing clouds.3 mph90%29.99 "Hg10 mi
6:54 AM62 °FClear.3 mph90%29.97 "Hg10 mi
5:54 AM62 °FPassing clouds.3 mph90%29.95 "Hg10 mi
4:54 AM64 °FPassing clouds.3 mph87%29.94 "Hg10 mi
3:54 AM62 °FClear.5 mph86%29.93 "Hg10 mi
2:54 AM64 °FPassing clouds.9 mph87%29.93 "Hg10 mi
1:54 AM64 °FPassing clouds.5 mph90%29.94 "Hg10 mi
12:54 AM65 °FPassing clouds.3 mph91%29.95 "Hg10 mi
11:54 PM
Jan 27
65 °FPassing clouds.No wind85%29.96 "Hg10 mi
10:54 PM66 °FClear.7 mph84%29.96 "Hg10 mi
9:54 PM66 °FPassing clouds.7 mph84%29.96 "Hg10 mi
8:54 PM70 °FPassing clouds.No wind76%29.96 "Hg10 mi
7:54 PM69 °FPassing clouds.6 mph81%29.95 "Hg10 mi
6:54 PM71 °FPassing clouds.3 mph73%29.93 "Hg10 mi
5:54 PM75 °FPassing clouds.8 mph64%29.91 "Hg10 mi
4:54 PM77 °FScattered clouds.8 mph58%29.89 "Hg10 mi
3:54 PM79 °FScattered clouds.12 mph56%29.90 "Hg10 mi
2:54 PM80 °FScattered clouds.17 mph56%29.90 "Hg10 mi
1:54 PM81 °FScattered clouds.16 mph53%29.90 "Hg10 mi
12:54 PM80 °FScattered clouds.16 mph52%29.93 "Hg10 mi
Weather by CustomWeather, © 2014

See weather overviewHow to use our weather pages